[[{"header":{"parameterUnit":"m.s-1","parameterCategory":1,"la1":30.2991,"la2":30.254,"lo1":-89.0895,"lo2":-89.0444,"dy":0.0017,"dx":0.0017,"nx":28,"ny":28,"refTime":"2025-12-16T09:00:00:Z","depth":0,"parameterNumber":2,"parameterNumberName":"U-component_of_WINDS"},"data":[0,0,0,0,0,0,0,0,0,0,0,0,0,0,0,0,0,0,0,0,0,0,0,0,0,0,0,0,0,0,0,0,0,0,0,0,0,0,0,0,0,0,0,0,0,0,0,0,0,0,0,0,0,0,0,0,0,0,-3.7001,-3.7002,0,-3.7071,-3.7072,-3.7073,-3.6981,-3.6978,-3.6974,-3.6971,-3.7045,-3.705,-3.7055,0,0,0,0,0,0,0,0,0,0,0,0,0,-3.6791,-3.6796,-3.7001,-3.7002,-3.7003,-3.7071,-3.7072,-3.7073,-3.6981,-3.6977,-3.6973,-3.697,-3.7043,-3.7049,-3.7055,0,0,0,0,0,0,0,0,0,0,0,0,0,-3.6874,-3.6797,-3.7001,-3.6965,-3.6963,-3.7071,-3.7072,-3.7073,-3.6982,-3.6977,-3.6972,-3.6968,-3.7041,-3.7049,-3.7056,-3.7203,0,0,-3.7079,-3.7083,0,0,0,0,0,0,0,0,-3.687,-3.6882,-3.697,-3.6968,-3.6965,-3.7012,-3.7025,-3.7117,-3.6984,-3.6975,-3.6971,-3.6965,-3.7038,-3.7046,-3.707,-3.7207,-3.721,-3.708,-3.7085,-3.7088,-3.709,0,0,0,0,0,0,0,-3.6864,-3.6878,-3.7029,-3.6971,-3.6969,-3.6947,-3.6953,-3.7042,-3.7034,-3.6975,-3.6969,-3.6978,-3.7036,-3.7063,-3.7071,-3.7211,-3.708,-3.7087,-3.7091,-3.7094,-3.7473,-3.7479,0,0,0,0,0,0,-3.6862,-3.6874,-3.7027,-3.7031,-3.6904,-3.6955,-3.6962,-3.7002,-3.7033,-3.7032,-3.6983,-3.6974,-3.7052,-3.7062,-3.7073,-3.7247,-3.7088,-3.7095,-3.7099,-3.7468,-3.7475,-3.7481,0,0,0,0,0,0,-3.6858,-3.6876,-3.7024,-3.6951,-3.6968,-3.6964,-3.701,-3.7006,-3.7033,-3.7038,-3.7036,-3.7011,-3.7049,-3.7063,-3.7172,-3.7249,-3.7098,-3.7105,-3.7461,-3.747,-3.7478,-3.7597,0,0,0,0,0,0,-3.6852,-3.6875,-3.693,-3.6953,-3.6972,-3.712,-3.7015,-3.7011,-3.7046,-3.7035,-3.7064,-3.7064,-3.7046,-3.7161,-3.7179,-3.7256,-3.7111,-3.7454,-3.7465,-3.7475,-3.7586,-3.7608,-3.7627,0,0,0,0,0,-3.6845,-3.6961,-3.6933,-3.6952,-3.7041,-3.7125,-3.7136,-3.7112,-3.7053,-3.7108,-3.7112,-3.7063,-3.7238,-3.7173,-3.7193,-3.7273,-3.7449,-3.7462,-3.7474,-3.7577,-3.7604,-3.7627,0,0,0,0,0,0,-3.6948,-3.6963,-3.6933,-3.7059,-3.7092,-3.7109,-3.7178,-3.7141,-3.7191,-3.7179,-3.7147,-3.7155,-3.7271,-3.7284,-3.7211,-3.7418,-3.7334,-3.7351,-3.7405,-3.7431,-3.7451,-3.7445,-3.7118,0,0,0,0,0,-3.6985,-3.7051,-3.7062,-3.7173,-3.7191,-3.7182,-3.7218,-3.7197,-3.7229,-3.7242,-3.7254,-3.7288,-3.735,-3.7391,-3.7449,-3.7588,-3.7594,-3.7654,-3.7675,-3.7691,-3.7706,-3.7781,-3.7808,-3.7521,-3.7521,-3.7521,0,0,-3.7063,-3.708,-3.7123,-3.7194,-3.7216,-3.7287,-3.7194,-3.7272,-3.7324,-3.7254,-3.7357,-3.7368,-3.7404,-3.7529,-3.7584,-3.7542,-3.7787,-3.7707,-3.7721,-3.7726,-3.7796,-3.7823,-3.7848,-3.753,-3.7528,-3.7527,0,0,-3.724,-3.726,-3.7354,-3.7379,-3.7414,-3.7408,-3.7431,-3.7455,-3.7459,-3.7563,-3.7512,-3.7575,-3.7683,-3.771,-3.7739,-3.793,-3.7888,-3.795,-3.8057,-3.813,-3.8153,-3.8173,-3.824,-3.8265,-3.7965,-3.7966,-3.7966,0,-3.7332,-3.7434,-3.7408,-3.7489,-3.7522,-3.7463,-3.7559,-3.7585,-3.7638,-3.7663,-3.7615,-3.7751,-3.7771,-3.7901,-3.7948,-3.7974,-3.7999,-3.7945,-3.8152,-3.8171,-3.8189,-3.8254,-3.8279,-3.7973,-3.7972,-3.7971,-3.797,0,-3.7546,-3.7618,-3.7691,-3.7743,-3.7785,-3.7874,-3.7861,-3.7907,-3.7884,-3.7883,-3.7991,-3.8013,-3.8074,-3.8105,-3.8083,-3.8233,-3.8206,-3.8156,-3.8071,-3.8224,-3.8284,-3.8308,-3.7983,-3.798,-3.7978,-3.7977,0,0,-3.7785,-3.7824,-3.7851,-3.7874,-3.791,-3.7966,-3.8054,-3.8114,-3.8153,-3.8194,-3.8266,-3.836,-3.8315,-3.8347,-3.8328,-3.8393,-3.8543,-3.8335,-3.8335,-3.8372,-3.8711,-3.8746,-3.8775,-3.8517,-3.8521,-3.8525,-3.8707,0,-3.7961,-3.8111,-3.8091,-3.8235,-3.8302,-3.8249,-3.8325,-3.8356,-3.836,-3.8418,-3.8422,-3.8489,-3.8424,-3.8443,-3.8506,-3.8512,-3.861,-3.8499,-3.8584,-3.8587,-3.8573,-3.8806,-3.8844,-3.9015,-3.873,-3.8734,-3.8737,0,-3.8185,-3.8233,-3.8384,-3.8411,-3.8438,-3.8507,-3.8561,-3.8618,-3.8653,-3.8651,-3.8689,-3.8659,-3.8748,-3.8664,-3.8786,-3.8711,-3.8745,-3.8754,-3.876,-3.8765,-3.8669,-3.8816,-3.9068,-3.9093,-3.8774,-3.8771,-3.8768,0,-3.8344,-3.8446,-3.8549,-3.8571,-3.8606,-3.8656,-3.8673,-3.8703,-3.8741,-3.879,-3.8814,-3.8873,-3.8905,-3.8951,-3.8939,-3.8878,-3.9065,-3.8979,-3.9065,-3.9065,-3.9104,-3.9101,-3.9364,-3.913,-3.913,-3.9129,-3.9129,0,-3.854,-3.8634,-3.8621,-3.8684,-3.8789,-3.8767,-3.8871,-3.8882,-3.891,-3.8975,-3.8934,-3.8997,-3.8977,-3.904,-3.9031,-3.9134,-3.9149,-3.915,-3.9146,-3.9152,-3.9152,-3.9172,-3.9159,-3.9136,-3.9135,-3.9133,-3.9132,0,-3.8733,-3.8728,-3.8837,-3.8862,-3.887,-3.8946,-3.8968,-3.9028,-3.903,-3.9113,-3.9132,-3.9134,-3.9205,-3.9198,-3.9278,-3.9273,-3.94,-3.9383,-3.9387,-3.9382,-3.9469,-3.946,-3.9751,-3.9788,-3.9533,-3.9536,-3.9538,0,-3.8857,-3.8929,-3.8962,-3.9002,-3.9023,-3.9089,-3.9128,-3.911,-3.9153,-3.92,-3.9255,-3.9323,-3.9375,-3.9492,-3.9502,-3.9563,-3.9546,-3.9645,-3.9555,-3.9559,-3.9546,-3.9541,-3.9548,-3.9661,-3.9664,-3.9666,-3.9668,0,-3.9079,-3.9074,-3.913,-3.9188,-3.9236,-3.928,-3.932,-3.9357,-3.9343,-3.9393,-3.9465,-3.9507,-3.9589,-3.9657,-3.9716,-3.9735,-3.97,-3.9697,-3.972,-3.9725,-3.9724,-3.9724,-3.9433,-3.9689,-3.9687,-3.9686,-3.9684,-3.9684,-3.924,-3.9301,-3.9334,-3.94,-3.9428,-3.9468,-3.9526,-3.9535,-3.9595,-3.966,-3.9647,-3.9729,-3.9765,-3.984,-3.9865,-3.9929,-3.9894,-3.9927,-3.9935,-3.9943,-3.9953,-3.9717,-3.994,-3.994,-3.9939,-3.9939,-3.9938,0,-3.9458,-3.9477,-3.9538,-3.9596,-3.9648,-3.9612,-3.9655,-3.9701,-3.9774,-3.981,-3.9863,-3.9948,-4.0014,-4.003,-4.0094,-4.0142,-4.0128,-4.016,-4.0154,-4.0159,-3.9981,-3.9954,-4.017,-4.017,-4.017,-4.017,-4.017,-4.017,-3.9577,-3.9678,-3.9677,-3.9793,-3.9812,-3.9891,-3.9919,-3.9956,-3.9985,-4.008,-4.0135,-4.0145,-4.0174,-4.024,-4.03,-4.0303,-4.0328,-4.0366,-4.0362,-4.0195,-4.0172,-4.015,-4.0124,-4.0372,-4.0372,-4.0535,-4.0536,-4.0537]},{"header":{"parameterUnit":"m.s-1","parameterCategory":1,"la1":30.2991,"la2":30.254,"lo1":-89.0895,"lo2":-89.0444,"dy":0.0017,"dx":0.0017,"nx":28,"ny":28,"refTime":"2025-12-16T09:00:00:Z","depth":0,"parameterNumber":3,"parameterNumberName":"V-component_of_WINDS"},"data":[0,0,0,0,0,0,0,0,0,0,0,0,0,0,0,0,0,0,0,0,0,0,0,0,0,0,0,0,0,0,0,0,0,0,0,0,0,0,0,0,0,0,0,0,0,0,0,0,0,0,0,0,0,0,0,0,0,0,0.716,0.7161,0,0.7222,0.7223,0.7224,0.7321,0.7323,0.7325,0.7327,0.7386,0.7386,0.7386,0,0,0,0,0,0,0,0,0,0,0,0,0,0.7125,0.7125,0.716,0.7161,0.7162,0.7222,0.7223,0.7224,0.7321,0.7323,0.7325,0.7327,0.7386,0.7386,0.7386,0,0,0,0,0,0,0,0,0,0,0,0,0,0.7159,0.7125,0.716,0.7218,0.7224,0.7222,0.7223,0.7224,0.7321,0.7323,0.7326,0.7328,0.7386,0.7386,0.7386,0.7332,0,0,0.7386,0.7386,0,0,0,0,0,0,0,0,0.7157,0.716,0.7208,0.7214,0.722,0.7267,0.7233,0.726,0.732,0.7284,0.7327,0.733,0.7344,0.7348,0.7353,0.7335,0.7338,0.7386,0.7386,0.7386,0.7386,0,0,0,0,0,0,0,0.7154,0.7158,0.7185,0.7209,0.7216,0.724,0.7248,0.7238,0.7298,0.7287,0.7294,0.73,0.7348,0.7353,0.7355,0.7339,0.7386,0.7386,0.7386,0.7386,0.7281,0.7279,0,0,0,0,0,0,0.7144,0.7155,0.7183,0.7187,0.7195,0.7239,0.7247,0.7249,0.7298,0.7309,0.7298,0.7305,0.7352,0.7355,0.7358,0.7299,0.7386,0.7386,0.7386,0.7284,0.7281,0.7278,0,0,0,0,0,0,0.7143,0.7145,0.718,0.7173,0.7179,0.7236,0.7238,0.7249,0.7255,0.7307,0.7318,0.7293,0.7354,0.7358,0.7339,0.7303,0.7386,0.7386,0.7287,0.7283,0.7279,0.7181,0,0,0,0,0,0,0.7141,0.7144,0.7124,0.7172,0.7179,0.716,0.7236,0.7248,0.7254,0.7264,0.7305,0.7314,0.7357,0.7338,0.7339,0.7304,0.7385,0.7291,0.7285,0.7281,0.7187,0.7174,0.7162,0,0,0,0,0,0.714,0.7093,0.7123,0.7126,0.7156,0.7158,0.7162,0.7213,0.7251,0.7232,0.7266,0.7313,0.7307,0.7335,0.7337,0.7301,0.7293,0.7287,0.7281,0.7193,0.7176,0.7162,0,0,0,0,0,0,0.7038,0.71,0.7134,0.7101,0.7124,0.7174,0.7151,0.7193,0.7204,0.7212,0.7275,0.7283,0.7256,0.7277,0.7308,0.7253,0.7307,0.7301,0.724,0.7225,0.7212,0.7207,0.7385,0,0,0,0,0,0.7012,0.7009,0.7063,0.7029,0.7039,0.7093,0.7096,0.7133,0.7159,0.7168,0.7201,0.7222,0.7226,0.7227,0.7233,0.7191,0.7202,0.7168,0.7155,0.7145,0.7138,0.712,0.7105,0.7258,0.7258,0.7258,0,0,0.6957,0.6991,0.6985,0.701,0.7031,0.7027,0.71,0.7091,0.7089,0.7166,0.7151,0.7175,0.7204,0.7174,0.7162,0.7191,0.7099,0.7137,0.7128,0.7127,0.7112,0.7097,0.7084,0.7254,0.7255,0.7255,0,0,0.6856,0.6881,0.6857,0.6878,0.6911,0.6947,0.6941,0.6986,0.7006,0.6992,0.7051,0.7048,0.7052,0.7071,0.7081,0.699,0.7033,0.699,0.6923,0.6904,0.6892,0.6882,0.685,0.6838,0.6984,0.6983,0.6983,0,0.6784,0.678,0.6838,0.6827,0.6836,0.6909,0.6884,0.6902,0.6934,0.6938,0.6971,0.6979,0.7003,0.6979,0.6957,0.6963,0.6958,0.6985,0.6889,0.688,0.6871,0.6841,0.6829,0.6978,0.6978,0.6979,0.698,0,0.669,0.6687,0.6663,0.6694,0.6701,0.6683,0.6738,0.6738,0.6776,0.6809,0.6795,0.6827,0.6841,0.6839,0.6875,0.682,0.6837,0.6878,0.6934,0.685,0.6823,0.6812,0.697,0.6972,0.6974,0.6975,0,0,0.6524,0.6591,0.6581,0.6597,0.664,0.6638,0.6624,0.664,0.6639,0.6659,0.6649,0.6652,0.6692,0.6703,0.6742,0.6725,0.6652,0.6769,0.6771,0.6746,0.6595,0.6564,0.655,0.6682,0.6681,0.6679,0.6593,0,0.6431,0.6412,0.6465,0.6431,0.6429,0.65,0.6488,0.6512,0.6544,0.6547,0.6581,0.6583,0.6634,0.6642,0.6629,0.6664,0.6623,0.6671,0.6673,0.6672,0.6663,0.6535,0.6502,0.6419,0.6583,0.6581,0.658,0,0.632,0.6337,0.6304,0.6351,0.6352,0.634,0.636,0.6362,0.6392,0.6417,0.643,0.6477,0.6467,0.6521,0.6508,0.6539,0.6544,0.6562,0.656,0.6561,0.662,0.6533,0.6394,0.6381,0.6564,0.6565,0.6566,0,0.6202,0.6217,0.62,0.6211,0.6265,0.6256,0.6278,0.6311,0.6318,0.6335,0.6341,0.6356,0.6364,0.6375,0.6425,0.646,0.6406,0.6464,0.6425,0.6424,0.6409,0.6409,0.6268,0.6413,0.6413,0.6413,0.6413,0,0.6093,0.607,0.6148,0.6137,0.6114,0.6176,0.6151,0.618,0.6209,0.6205,0.6267,0.6262,0.6328,0.6331,0.6369,0.6353,0.6356,0.6375,0.6386,0.6369,0.6367,0.6372,0.6379,0.641,0.6411,0.6411,0.6412,0,0.5957,0.6008,0.5994,0.6048,0.6061,0.6041,0.6087,0.608,0.6116,0.6111,0.6113,0.617,0.6176,0.6227,0.6244,0.6271,0.6239,0.6261,0.6229,0.6236,0.6195,0.6198,0.6051,0.6035,0.619,0.6188,0.6187,0,0.5883,0.5867,0.592,0.5923,0.5943,0.5945,0.5954,0.6014,0.602,0.6055,0.6043,0.6055,0.6068,0.6074,0.6117,0.6131,0.6153,0.6101,0.6155,0.614,0.6152,0.6152,0.6152,0.6089,0.6087,0.6085,0.6084,0,0.5747,0.5774,0.5784,0.5803,0.5811,0.5829,0.5851,0.5849,0.5916,0.592,0.5928,0.5938,0.5957,0.5968,0.599,0.6012,0.6059,0.6067,0.6059,0.6041,0.6023,0.6033,0.6197,0.6069,0.6071,0.6072,0.6073,0.6073,0.564,0.563,0.5666,0.5676,0.5699,0.5718,0.5714,0.5752,0.576,0.5781,0.5816,0.5819,0.5852,0.5887,0.5906,0.5909,0.5936,0.5924,0.5921,0.5917,0.5909,0.6024,0.5913,0.5914,0.5914,0.5915,0.5915,0,0.5507,0.5535,0.5543,0.5572,0.558,0.5626,0.5652,0.5656,0.5658,0.5685,0.5697,0.5707,0.5719,0.5764,0.578,0.5774,0.5796,0.5776,0.5777,0.5782,0.5883,0.5889,0.5758,0.5758,0.5758,0.5759,0.5759,0.5759,0.5439,0.5425,0.5456,0.5455,0.5483,0.5488,0.5499,0.5518,0.554,0.5549,0.556,0.5589,0.5624,0.5644,0.5657,0.567,0.5673,0.5646,0.5665,0.5759,0.5774,0.5788,0.5794,0.5646,0.5646,0.5564,0.5563,0.5562]}]]